STARLINK-32636, 62232

Orbit data source: Space-Track

STARLINK-32636, 62232 is a payload satellite owned by SpaceX/Seattle (US) in LEO that was launched on Thu, 05 Dec 2024 UTC via an FALCON 9 launch vehicle from the Air Force Western Test Range (AFWTR). Payload-class satellites include a variety of spacecraft equipped with specific instruments for various scientific and technological missions. These include communications satellites like Starlink; space stations such as the ISS; scientific satellites like the Hubble; Earth observation satellites from companies like Planet Labs, Umbra, and HawkEye 360; GPS; miniature CubeSats for education and research; and military/defense satellites.

Loading next visibility...
Identifier
62232, 2024-231Q
Orbit
LEO
Country
Flag of USUS
Related business
Manufacturer
SpaceX/Seattle
Mission
Operational Commercial Communications
Bus & Motor
STARLINK V2M, Unknown motor
Mass
730 kg wet, ~700 kg dry
Launch date (UTC)
2024-12-05 (1 year ago)
Launch vehicle
FALCON 9
Launch site
Air Force Western Test Range (AFWTR)
Object type
Payload
Rocket body
Debris
Shape & HBR
Box + 2 Pan, 17.7 m
Radar Cross Section
33.884 m², Large (>1 m²)

Expand to show TLE details & history
Last TLE update: 9 hours ago

TLE from 9 hours ago
0 STARLINK-32636
1 62232U 24231Q   25353.69004191  .00013175  00000-0  45603-3 0  9993
2 62232  53.1576 230.9710 0001421 103.2012 256.9148 15.30209057 59521
Epoch: 2025-12-19T16:33Z
TLE epoch observation values (Epoch: 2025-12-19T16:33:39.621Z)
Latitude
0.00006°
Longitude
-105.97163°
Altitude
476.308 km
Speed
7.629 km/s
True Right ascension
15h 23m 53s
True Declination
0° 00' 00"
Sunlit
Object was in daylight at epoch
Visualization orbit readout
Latitude
Unknown
Longitude
Unknown
Altitude
Unknown
Speed
Unknown
Apparent Right ascension
Unknown
Apparent Declination
Unknown
Sunlit
N/A
Visualization observer readout
Local Sidereal Time
00:56:57
Azimuth
Unknown
Elevation
Unknown
Doppler factor
Unknown
Orbital elements
Apogee altitude
476.419 km
Perigee altitude
474.471 km
Semi-major axis
6,853.582 km
Eccentricity
0.00014
Inclination
53.1576°
RAAN
230.971°
Arg. of periapsis
103.2012°
True anomaly
256.89894°
Mean anomaly
256.9148°
Eccentric anomaly
256.90687°
Mean motion
3.82531 °/min
Orbital period
94.11 mins
BSTAR
0.00045603
Loading maneuver chart data...
Computing Atmospheric mass density...
Loading historical data...
Loading historical data...
Loading historical data...
Loading historical data...
Loading historical data...
Loading historical data...
Loading historical data...

Documentation

Showing up to 5 results
|